This demonstration page uses our WeatherBlox Daily Observations layout. Learn more.

Left ArrowRight Arrow

39.51506, -84.39828

Hourly Observations for December 2, 2018

Temp ( °F °C ) Dew Point ( °F °C ) Humidity (%) Winds ( mph kmh ) Pressure ( in mb ) Visibility ( mi km ) Precip ( " mm )
12:15 am 00:15 Cloudy 58 14.4 55 12.7 90 90 S 13 20 29.50 999 10 16 N/A
12:35 am 00:35 Cloudy 58 14.2 55 12.6 90 90 SW 8 13 29.50 999 10 16 N/A
12:55 am 00:55 Mostly Cloudy 58 14.4 55 12.6 89 89 S 13 20 29.50 999 10 16 N/A
1:15 am 01:15 Clear 58 14.2 55 12.5 90 90 S 9 15 29.50 999 10 16 N/A
1:35 am 01:35 Partly Cloudy 56 13.3 54 12.1 93 93 S 7 11 29.50 999 10 16 N/A
1:55 am 01:55 Clear 56 13.1 54 12.1 94 94 S 8 13 29.50 999 10 16 N/A
2:15 am 02:15 Partly Cloudy 55 12.9 53 11.8 93 93 S 8 13 29.50 999 10 16 N/A
2:35 am 02:35 Mostly Cloudy 56 13.5 54 12.3 93 93 S 7 11 29.50 999 10 16 N/A
2:55 am 02:55 Mostly Cloudy 56 13.6 54 12.3 92 92 SSW 12 19 29.50 999 10 16 N/A
3:15 am 03:15 Partly Cloudy 56 13.6 54 12.2 91 91 S 10 17 29.53 1000 10 16 N/A
3:35 am 03:35 Clear 56 13.1 53 11.7 91 91 SSW 9 15 29.50 999 10 16 N/A
3:55 am 03:55 Partly Cloudy 55 12.9 53 11.6 92 92 S 8 13 29.50 999 10 16 N/A
4:15 am 04:15 Clear 55 12.8 53 11.5 92 92 SSW 8 13 29.50 999 10 16 N/A
4:35 am 04:35 Clear 53 11.9 52 10.9 94 94 SSW 7 11 29.50 999 10 16 N/A
4:55 am 04:55 Clear 53 11.9 52 10.9 94 94 SSW 8 13 29.53 1000 10 16 N/A
5:15 am 05:15 Clear 51 10.8 50 10 95 95 S 6 9 29.50 999 10 16 N/A
5:35 am 05:35 Clear 51 10.6 50 9.8 95 95 SSW 7 11 29.56 1001 10 16 N/A
5:55 am 05:55 Clear 51 10.5 50 9.8 95 95 SSW 8 13 29.56 1001 10 16 N/A
6:15 am 06:15 Clear 51 10.8 50 10.2 96 96 SSW 9 15 29.56 1001 10 16 N/A
6:35 am 06:35 Clear 52 11.1 50 9.9 92 92 S 9 15 29.53 1000 10 16 N/A
6:55 am 06:55 Clear 51 10.3 49 9.4 94 94 SSW 8 13 29.56 1001 10 16 N/A
7:15 am 07:15 Clear 51 10.8 49 9.6 92 92 SSW 9 15 29.56 1001 10 16 N/A
7:35 am 07:35 Clear 52 11 49 9.5 91 91 S 9 15 29.53 1000 10 16 N/A
7:55 am 07:55 Sunny 51 10.8 49 9.4 91 91 S 9 15 29.56 1001 10 16 N/A
8:15 am 08:15 Sunny 51 10.4 48 9.1 92 92 S 6 9 29.56 1001 10 16 N/A
8:35 am 08:35 Sunny 52 11.2 49 9.4 89 89 S 8 13 29.53 1000 10 16 N/A
8:55 am 08:55 Sunny 54 12.2 49 9.4 83 83 S 8 13 29.53 1000 10 16 N/A
9:15 am 09:15 Sunny 55 12.7 49 9.4 81 81 S 10 17 29.53 1000 10 16 N/A
9:35 am 09:35 Sunny 56 13.3 48 9 75 75 S 12 19 29.53 1000 10 16 N/A
9:55 am 09:55 Sunny 57 13.8 47 8.5 71 71 S 14 22 29.53 1000 10 16 N/A
10:15 am 10:15 Sunny 58 14.3 47 8.2 67 67 S 15 24 29.53 1000 10 16 N/A
10:35 am 10:35 Sunny 59 15 46 7.8 62 62 S 17 28 29.53 1000 10 16 N/A
10:55 am 10:55 Sunny 60 15.4 46 7.5 60 60 S 14 22 29.53 1000 10 16 N/A
11:15 am 11:15 Sunny 61 16 45 7.3 57 57 S 18 30 29.50 999 10 16 N/A
11:35 am 11:35 Sunny 62 16.6 44 6.8 53 53 S 17 28 29.50 999 10 16 N/A
11:55 am 11:55 Sunny 63 17.2 44 6.4 49 49 S 23 37 29.50 999 10 16 N/A
12:15 pm 12:15 Sunny 64 17.6 43 6.3 48 48 S 18 30 29.47 998 10 16 N/A
12:35 pm 12:35 Sunny 64 17.8 42 5.6 45 45 S 20 31 29.47 998 10 16 N/A
12:55 pm 12:55 Mostly Cloudy 64 17.8 42 5.8 46 46 S 21 33 29.44 997 10 16 N/A
1:15 pm 13:15 Cloudy 65 18.6 43 6.3 45 45 S 18 30 29.44 997 10 16 N/A
1:35 pm 13:35 Partly Cloudy 66 18.7 43 6.2 44 44 SSW 20 31 29.44 997 10 16 N/A
1:55 pm 13:55 Partly Cloudy 66 18.7 43 5.9 43 43 SSW 24 39 29.44 997 10 16 N/A
2:15 pm 14:15 Partly Cloudy 65 18.5 42 5.4 42 42 SW 21 33 29.44 997 10 16 N/A
2:35 pm 14:35 Partly Cloudy 65 18.4 41 5 41 41 SSW 24 39 29.44 997 10 16 N/A
2:55 pm 14:55 Sunny 65 18.3 38 3.1 37 37 SW 23 37 29.44 997 10 16 N/A
3:15 pm 15:15 Partly Cloudy 65 18.1 38 3.6 38 38 SW 30 48 29.44 997 10 16 N/A
3:35 pm 15:35 Partly Cloudy 63 17 39 3.7 41 41 SW 20 31 29.44 997 10 16 N/A
3:55 pm 15:55 Cloudy 62 16.5 39 4 44 44 WSW 17 28 29.47 998 10 16 N/A
4:15 pm 16:15 Mostly Cloudy 60 15.6 39 4 46 46 W 16 26 29.47 998 10 16 N/A
4:35 pm 16:35 Cloudy 59 14.8 39 4.1 49 49 W 16 26 29.50 999 10 16 N/A
4:55 pm 16:55 Partly Cloudy 54 12.4 41 5.1 61 61 W 14 22 29.50 999 10 16 N/A
5:15 pm 17:15 Cloudy 53 11.7 41 5.2 65 65 W 12 19 29.53 1000 10 16 N/A
5:35 pm 17:35 Clear 52 11 40 4.4 64 64 W 14 22 29.53 1000 10 16 N/A
5:55 pm 17:55 Partly Cloudy 51 10.5 39 4.1 65 65 W 16 26 29.59 1002 10 16 N/A
6:15 pm 18:15 Mostly Cloudy 50 10 39 3.8 66 66 W 9 15 29.62 1003 10 16 N/A
6:35 pm 18:35 Cloudy 50 10 36 2.4 60 60 W 20 31 29.62 1003 10 16 N/A
6:55 pm 18:55 Cloudy 49 9.5 35 1.6 58 58 WSW 14 22 29.65 1004 10 16 N/A
7:15 pm 19:15 Cloudy 49 9.3 34 1.2 57 57 WSW 16 26 29.65 1004 10 16 N/A
7:35 pm 19:35 Cloudy 48 9.1 34 1.2 58 58 WSW 20 31 29.68 1005 10 16 N/A
7:55 pm 19:55 Partly Cloudy 47 8.4 34 1.1 60 60 WSW 17 28 29.68 1005 10 16 N/A
8:15 pm 20:15 Clear 46 7.9 33 0.8 61 61 WSW 20 31 29.68 1005 10 16 N/A
8:35 pm 20:35 Clear 46 7.5 33 0.6 62 62 WSW 16 26 29.71 1006 10 16 N/A
8:55 pm 20:55 Clear 45 7.2 33 0.5 63 63 WSW 14 22 29.71 1006 10 16 N/A
9:15 pm 21:15 Clear 44 6.9 33 0.6 65 65 WSW 13 20 29.71 1006 10 16 N/A
9:35 pm 21:35 Clear 44 6.7 33 0.5 65 65 SW 12 19 29.71 1006 10 16 N/A
9:55 pm 21:55 Partly Cloudy 44 6.4 33 0.7 67 67 WSW 10 17 29.71 1006 10 16 N/A
10:15 pm 22:15 Clear 43 6.1 33 0.7 69 69 WSW 10 17 29.74 1007 10 16 N/A
10:35 pm 22:35 Partly Cloudy 43 6.1 33 0.7 69 69 WSW 10 17 29.74 1007 10 16 N/A
10:55 pm 22:55 Cloudy 43 6.3 34 0.9 69 69 SW 8 13 29.74 1007 10 16 N/A
11:15 pm 23:15 Cloudy 44 6.4 34 0.9 68 68 SW 8 13 29.77 1008 10 16 N/A
11:35 pm 23:35 Cloudy 43 6.2 33 0.8 69 69 SSW 8 13 29.77 1008 10 16 N/A
11:55 pm 23:55 Cloudy 43 6.2 33 0.7 68 68 SW 8 13 29.77 1008 10 16 N/A

Powered by AerisWeather